Location: Errabaliem
(16.8108°N, 80.4255°E)
Time: 13:55:50
(UTC+00:00)

Aurora 2 Rocket - Pass Details

Date: 05 August 2024
Orbit: 386 x 1616 km, 25.0° (Epoch: 11 September)

Event Time Altitude Azimuth Distance (km) Brightness Sun altitude
Exits shadow 22:31:22 58° 176° (S) 858 3.0 -24.8°
Maximum altitude 22:31:41 59° 159° (SSE) 837 3.1 -24.8°
Drops below altitude 10° 22:36:04 10° 80° (E) 1,918 6.1 -23.8°
Sets 22:38:00 0° 76° (ENE) 2,666 7.2 -23.4°
